Time,TemperatureF,DewpointF,PressureIn,WindDirection,WindDirectionDegrees,WindSpeedMPH,WindSpeedGustMPH,Humidity,HourlyPrecipIn,Conditions,Clouds,dailyrainin,SoftwareType,DateUTC
2013-07-21 10:53:00,81.0,81.0,29.93,North,0,0.0,0.0,100,0.20,RA,,0.20,WeatherDisplay:10.37,2013-07-21 15:53:00,
2013-07-21 10:54:00,81.0,81.0,29.93,SW,220,0.0,0.0,100,0.20,RA,,0.20,WeatherDisplay:10.37,2013-07-21 15:54:00,
2013-07-21 10:55:00,81.1,79.9,29.93,SW,220,0.0,0.0,96,0.20,RA,,0.20,WeatherDisplay:10.37,2013-07-21 15:55:00,
2013-07-21 10:57:00,81.1,79.9,29.93,West,280,0.0,0.0,96,0.20,RA,,0.20,WeatherDisplay:10.37,2013-07-21 15:57:00,
2013-07-21 11:02:00,81.7,80.4,29.93,South,180,0.0,0.0,96,0.20,CLR,,0.20,WeatherDisplay:10.37,2013-07-21 16:02:00,
2013-07-21 11:07:00,82.4,80.5,29.93,North,0,0.0,0.0,94,0.20,CLR,,0.20,WeatherDisplay:10.37,2013-07-21 16:07:00,
2013-07-21 11:12:00,82.8,80.5,29.93,WSW,256,0.0,0.0,93,0.20,CLR,,0.20,WeatherDisplay:10.37,2013-07-21 16:12:00,
2013-07-21 11:17:00,83.1,80.2,29.93,West,271,0.0,0.0,91,0.20,CLR,,0.20,WeatherDisplay:10.37,2013-07-21 16:17:00,
2013-07-21 11:22:00,83.3,79.4,29.93,South,186,0.0,3.5,88,0.16,CLR,,0.20,WeatherDisplay:10.37,2013-07-21 16:22:00,
2013-07-21 11:27:00,83.1,77.4,29.93,WNW,294,0.0,0.0,83,0.12,CLR,,0.20,WeatherDisplay:10.37,2013-07-21 16:27:00,
2013-07-21 11:32:00,82.9,76.1,29.93,WSW,252,0.0,3.5,80,0.12,CLR,,0.20,WeatherDisplay:10.37,2013-07-21 16:32:00,
2013-07-21 11:37:00,82.6,74.2,29.93,NNW,334,2.7,3.6,76,0.08,CLR,,0.20,WeatherDisplay:10.37,2013-07-21 16:37:00,
2013-07-21 11:42:00,82.4,73.3,29.93,West,263,0.0,0.0,74,0.08,CLR,,0.20,WeatherDisplay:10.37,2013-07-21 16:42:00,
2013-07-21 11:47:00,82.2,72.7,29.93,West,263,0.0,0.0,73,0.04,CLR,,0.20,WeatherDisplay:10.37,2013-07-21 16:47:00,
2013-07-21 11:52:00,82.2,72.3,29.93,WSW,247,2.2,3.5,72,0.04,CLR,,0.20,WeatherDisplay:10.37,2013-07-21 16:52:00,
2013-07-21 11:57:00,82.0,71.7,29.93,WSW,247,0.0,0.0,71,0.04,CLR,,0.20,WeatherDisplay:10.37,2013-07-21 16:57:00,
2013-07-21 12:02:00,81.9,71.1,29.90,NW,312,3.1,3.5,70,0.00,CLR,,0.20,WeatherDisplay:10.37,2013-07-21 17:02:00,
2013-07-21 12:07:00,81.9,70.7,29.90,NW,304,3.1,0.0,69,0.00,CLR,,0.20,WeatherDisplay:10.37,2013-07-21 17:07:00,
2013-07-21 12:12:00,82.0,70.4,29.90,NW,304,0.0,0.0,68,0.00,CLR,,0.20,WeatherDisplay:10.37,2013-07-21 17:12:00,
2013-07-21 12:17:00,82.2,70.2,29.90,WSW,253,0.0,0.0,67,0.00,CLR,,0.20,WeatherDisplay:10.37,2013-07-21 17:17:00,
2013-07-21 12:22:00,82.0,69.6,29.90,WSW,237,0.0,0.0,66,0.00,CLR,,0.20,WeatherDisplay:10.37,2013-07-21 17:22:00,
2013-07-21 12:27:00,81.7,68.8,29.90,WSW,237,0.0,0.0,65,0.00,CLR,,0.20,WeatherDisplay:10.37,2013-07-21 17:27:00,
2013-07-21 12:32:00,81.5,68.6,29.90,SW,221,0.0,0.0,65,0.04,RA,,0.24,WeatherDisplay:10.37,2013-07-21 17:32:00,
2013-07-21 12:37:00,80.6,66.8,29.90,SW,221,0.0,0.0,63,0.04,RA,,0.24,WeatherDisplay:10.37,2013-07-21 17:37:00,
2013-07-21 12:42:00,79.9,67.5,29.90,WNW,293,0.0,0.0,66,0.04,CLR,,0.24,WeatherDisplay:10.37,2013-07-21 17:42:00,
2013-07-21 12:47:00,79.2,66.8,29.90,WNW,293,0.0,0.0,66,0.04,CLR,,0.24,WeatherDisplay:10.37,2013-07-21 17:47:00,
2013-07-21 12:52:00,78.4,67.0,29.90,WNW,293,0.0,0.0,68,0.04,CLR,,0.24,WeatherDisplay:10.37,2013-07-21 17:52:00,
2013-07-21 12:57:00,78.6,68.0,29.90,WNW,293,0.0,0.0,70,0.04,CLR,,0.24,WeatherDisplay:10.37,2013-07-21 17:57:00,
2013-07-21 13:02:00,78.6,68.4,29.90,WNW,293,0.0,0.0,71,0.04,CLR,,0.24,WeatherDisplay:10.37,2013-07-21 18:02:00,
2013-07-21 13:07:00,78.8,68.6,29.90,WNW,293,0.0,0.0,71,0.04,CLR,,0.24,WeatherDisplay:10.37,2013-07-21 18:07:00,
2013-07-21 13:12:00,79.3,69.9,29.90,NW,312,0.0,0.0,73,0.04,CLR,,0.24,WeatherDisplay:10.37,2013-07-21 18:12:00,
2013-07-21 13:17:00,80.2,71.6,29.90,SSW,213,0.0,0.0,75,0.04,CLR,,0.24,WeatherDisplay:10.37,2013-07-21 18:17:00,
2013-07-21 13:22:00,81.3,73.0,29.87,WSW,243,0.0,0.0,76,0.04,CLR,,0.24,WeatherDisplay:10.37,2013-07-21 18:22:00,
2013-07-21 13:27:00,82.2,73.1,29.87,South,169,0.0,0.0,74,0.04,CLR,,0.24,WeatherDisplay:10.37,2013-07-21 18:27:00,
2013-07-21 13:32:00,82.9,72.6,29.87,SSE,166,0.0,0.0,71,0.00,CLR,,0.24,WeatherDisplay:10.37,2013-07-21 18:32:00,
2013-07-21 13:33:00,82.9,72.6,29.87,South,185,0.0,0.0,71,0.00,CLR,,0.24,WeatherDisplay:10.37,2013-07-21 18:33:00,
2013-07-21 13:38:00,83.1,71.9,29.87,WSW,257,0.0,0.0,69,0.00,CLR,,0.24,WeatherDisplay:10.37,2013-07-21 18:38:00,
2013-07-21 13:43:00,83.1,71.0,29.87,SSW,192,0.0,3.5,67,0.00,CLR,,0.24,WeatherDisplay:10.37,2013-07-21 18:43:00,
2013-07-21 13:48:00,83.5,70.9,29.87,SW,217,0.0,0.0,66,0.00,CLR,,0.24,WeatherDisplay:10.37,2013-07-21 18:48:00,
2013-07-21 13:53:00,83.7,71.1,29.87,SSW,198,0.0,0.0,66,0.00,CLR,,0.24,WeatherDisplay:10.37,2013-07-21 18:53:00,
2013-07-21 13:58:00,83.8,70.8,29.87,SW,229,0.0,0.0,65,0.00,CLR,,0.24,WeatherDisplay:10.37,2013-07-21 18:58:00,
2013-07-21 14:03:00,83.8,69.9,29.87,SW,219,0.0,3.5,63,0.00,CLR,,0.24,WeatherDisplay:10.37,2013-07-21 19:03:00,
2013-07-21 14:08:00,83.7,69.3,29.87,SW,236,4.0,5.8,62,0.00,CLR,,0.24,WeatherDisplay:10.37,2013-07-21 19:08:00,
2013-07-21 14:13:00,83.3,68.0,29.87,SSW,203,4.0,5.8,60,0.00,CLR,,0.24,WeatherDisplay:10.37,2013-07-21 19:13:00,
2013-07-21 14:18:00,81.7,65.0,29.90,West,277,3.1,5.8,57,0.00,CLR,,0.24,WeatherDisplay:10.37,2013-07-21 19:18:00,
2013-07-21 14:23:00,80.1,62.9,29.90,SE,146,2.7,3.5,56,0.00,CLR,,0.24,WeatherDisplay:10.37,2013-07-21 19:23:00,
2013-07-21 14:28:00,78.6,61.1,29.90,South,189,0.0,2.3,55,0.00,CLR,,0.24,WeatherDisplay:10.37,2013-07-21 19:28:00,
2013-07-21 14:33:00,77.9,60.9,29.87,West,262,2.7,4.6,56,0.00,CLR,,0.24,WeatherDisplay:10.37,2013-07-21 19:33:00,
2013-07-21 14:38:00,77.2,59.8,29.87,East,95,0.0,0.0,55,0.00,CLR,,0.24,WeatherDisplay:10.37,2013-07-21 19:38:00,
2013-07-21 14:43:00,76.6,59.8,29.87,SSW,208,0.0,0.0,56,0.00,CLR,,0.24,WeatherDisplay:10.37,2013-07-21 19:43:00,
2013-07-21 14:48:00,76.5,60.1,29.87,SSW,213,0.0,0.0,57,0.00,CLR,,0.24,WeatherDisplay:10.37,2013-07-21 19:48:00,
2013-07-21 14:53:00,76.5,60.1,29.87,SSW,213,0.0,0.0,57,0.04,RA,,0.28,WeatherDisplay:10.37,2013-07-21 19:53:00,
2013-07-21 14:58:00,76.3,60.4,29.87,West,265,0.0,3.5,58,0.04,RA,,0.28,WeatherDisplay:10.37,2013-07-21 19:58:00,
2013-07-21 15:03:00,76.5,61.1,29.87,West,273,0.0,0.0,59,0.04,CLR,,0.28,WeatherDisplay:10.37,2013-07-21 20:03:00,
2013-07-21 15:08:00,76.3,60.9,29.87,West,273,0.0,0.0,59,0.04,CLR,,0.28,WeatherDisplay:10.37,2013-07-21 20:08:00,
2013-07-21 15:13:00,76.1,61.2,29.87,WSW,255,0.0,0.0,60,0.04,CLR,,0.28,WeatherDisplay:10.37,2013-07-21 20:13:00,
2013-07-21 15:18:00,75.9,61.0,29.87,SSW,211,0.0,0.0,60,0.04,CLR,,0.28,WeatherDisplay:10.37,2013-07-21 20:18:00,
2013-07-21 15:23:00,75.7,60.9,29.87,SSW,211,0.0,0.0,60,0.04,CLR,,0.28,WeatherDisplay:10.37,2013-07-21 20:23:00,
2013-07-21 15:28:00,75.4,61.0,29.87,SSW,211,0.0,0.0,61,0.04,CLR,,0.28,WeatherDisplay:10.37,2013-07-21 20:28:00,
2013-07-21 15:36:00,75.2,61.3,29.87,SSW,211,0.0,0.0,62,0.04,CLR,,0.28,WeatherDisplay:10.37,2013-07-21 20:36:00,
2013-07-21 15:41:00,75.2,61.3,29.87,SSW,211,0.0,0.0,62,0.04,CLR,,0.28,WeatherDisplay:10.37,2013-07-21 20:41:00,
2013-07-21 15:46:00,75.2,61.3,29.87,SSW,211,0.0,0.0,62,0.04,CLR,,0.28,WeatherDisplay:10.37,2013-07-21 20:46:00,
2013-07-21 15:51:00,75.2,61.3,29.87,SSW,211,0.0,0.0,62,0.04,CLR,,0.28,WeatherDisplay:10.37,2013-07-21 20:51:00,
2013-07-21 15:56:00,75.6,63.0,29.87,SSW,211,0.0,0.0,65,0.04,CLR,,0.28,WeatherDisplay:10.37,2013-07-21 20:56:00,
2013-07-21 16:01:00,75.6,63.0,29.87,SSW,211,0.0,0.0,65,0.00,CLR,,0.28,WeatherDisplay:10.37,2013-07-21 21:01:00,
2013-07-21 16:06:00,75.7,64.0,29.87,SW,234,0.0,0.0,67,0.00,CLR,,0.28,WeatherDisplay:10.37,2013-07-21 21:06:00,
2013-07-21 16:11:00,75.7,64.0,29.87,SW,234,0.0,0.0,67,0.00,CLR,,0.28,WeatherDisplay:10.37,2013-07-21 21:11:00,
2013-07-21 16:16:00,75.7,64.0,29.87,SW,234,0.0,0.0,67,0.00,CLR,,0.28,WeatherDisplay:10.37,2013-07-21 21:16:00,
2013-07-21 16:21:00,75.9,64.6,29.87,SW,234,0.0,0.0,68,0.00,CLR,,0.28,WeatherDisplay:10.37,2013-07-21 21:21:00,
2013-07-21 16:26:00,75.9,64.6,29.87,SW,234,0.0,0.0,68,0.00,CLR,,0.28,WeatherDisplay:10.37,2013-07-21 21:26:00,
2013-07-21 16:31:00,75.9,64.6,29.87,SW,234,0.0,0.0,68,0.00,CLR,,0.28,WeatherDisplay:10.37,2013-07-21 21:31:00,
2013-07-21 16:36:00,76.3,64.9,29.87,SW,234,0.0,0.0,68,0.00,CLR,,0.28,WeatherDisplay:10.37,2013-07-21 21:36:00,
2013-07-21 16:41:00,76.3,65.4,29.87,SW,234,0.0,0.0,69,0.00,CLR,,0.28,WeatherDisplay:10.37,2013-07-21 21:41:00,
2013-07-21 16:46:00,76.3,65.4,29.87,SW,234,0.0,0.0,69,0.00,CLR,,0.28,WeatherDisplay:10.37,2013-07-21 21:46:00,
2013-07-21 16:51:00,76.5,65.5,29.87,SW,234,0.0,0.0,69,0.00,CLR,,0.28,WeatherDisplay:10.37,2013-07-21 21:51:00,
2013-07-21 16:56:00,76.3,65.4,29.87,SW,234,0.0,0.0,69,0.00,CLR,,0.28,WeatherDisplay:10.37,2013-07-21 21:56:00,
2013-07-21 17:01:00,76.3,65.8,29.87,SW,234,0.0,0.0,70,0.00,CLR,,0.28,WeatherDisplay:10.37,2013-07-21 22:01:00,
2013-07-21 17:06:00,76.5,65.9,29.87,SW,234,0.0,0.0,70,0.00,CLR,,0.28,WeatherDisplay:10.37,2013-07-21 22:06:00,
2013-07-21 17:11:00,76.5,65.9,29.87,SW,234,0.0,0.0,70,0.00,CLR,,0.28,WeatherDisplay:10.37,2013-07-21 22:11:00,
2013-07-21 17:16:00,76.5,65.9,29.87,SW,234,0.0,0.0,70,0.00,CLR,,0.28,WeatherDisplay:10.37,2013-07-21 22:16:00,
2013-07-21 17:21:00,76.5,65.9,29.87,SW,234,0.0,0.0,70,0.00,CLR,,0.28,WeatherDisplay:10.37,2013-07-21 22:21:00,
2013-07-21 17:26:00,76.6,66.1,29.87,SW,234,0.0,0.0,70,0.00,CLR,,0.28,WeatherDisplay:10.37,2013-07-21 22:26:00,
2013-07-21 17:31:00,76.6,66.1,29.87,SW,234,0.0,0.0,70,0.00,CLR,,0.28,WeatherDisplay:10.37,2013-07-21 22:31:00,
2013-07-21 17:36:00,76.6,66.1,29.87,NNW,344,0.0,0.0,70,0.00,CLR,,0.28,WeatherDisplay:10.37,2013-07-21 22:36:00,
2013-07-21 17:41:00,76.6,66.1,29.87,NNW,344,0.0,0.0,70,0.00,CLR,,0.28,WeatherDisplay:10.37,2013-07-21 22:41:00,
2013-07-21 17:46:00,76.6,66.1,29.87,NNW,344,0.0,0.0,70,0.00,CLR,,0.28,WeatherDisplay:10.37,2013-07-21 22:46:00,
2013-07-21 17:51:00,76.6,66.1,29.84,NNW,344,0.0,0.0,70,0.00,CLR,,0.28,WeatherDisplay:10.37,2013-07-21 22:51:00,
2013-07-21 17:56:00,76.8,66.3,29.84,NNW,344,0.0,0.0,70,0.00,CLR,,0.28,WeatherDisplay:10.37,2013-07-21 22:56:00,
2013-07-21 18:01:00,76.8,66.3,29.84,NNW,344,0.0,0.0,70,0.00,CLR,,0.28,WeatherDisplay:10.37,2013-07-21 23:01:00,
2013-07-21 18:06:00,77.2,66.6,29.84,NNW,344,0.0,0.0,70,0.00,CLR,,0.28,WeatherDisplay:10.37,2013-07-21 23:06:00,
2013-07-21 18:11:00,77.4,66.8,29.84,NNW,344,0.0,0.0,70,0.00,CLR,,0.28,WeatherDisplay:10.37,2013-07-21 23:11:00,
2013-07-21 18:16:00,77.4,66.8,29.84,NNW,344,0.0,0.0,70,0.00,CLR,,0.28,WeatherDisplay:10.37,2013-07-21 23:16:00,
2013-07-21 18:21:00,77.4,66.8,29.84,NNW,344,0.0,0.0,70,0.00,CLR,,0.28,WeatherDisplay:10.37,2013-07-21 23:21:00,
2013-07-21 18:26:00,77.4,66.8,29.84,NNW,344,0.0,0.0,70,0.00,CLR,,0.28,WeatherDisplay:10.37,2013-07-21 23:26:00,
2013-07-21 18:31:00,77.4,66.8,29.84,NNW,344,0.0,0.0,70,0.00,CLR,,0.28,WeatherDisplay:10.37,2013-07-21 23:31:00,
2013-07-21 18:36:00,77.5,67.0,29.84,NNW,344,0.0,0.0,70,0.00,CLR,,0.28,WeatherDisplay:10.37,2013-07-21 23:36:00,
2013-07-21 18:41:00,77.5,67.0,29.84,NNW,344,0.0,0.0,70,0.00,CLR,,0.28,WeatherDisplay:10.37,2013-07-21 23:41:00,
2013-07-21 18:46:00,77.7,67.2,29.84,NNW,344,0.0,0.0,70,0.00,CLR,,0.28,WeatherDisplay:10.37,2013-07-21 23:46:00,
2013-07-21 18:51:00,77.7,67.2,29.84,NNW,344,0.0,0.0,70,0.00,CLR,,0.28,WeatherDisplay:10.37,2013-07-21 23:51:00,
2013-07-21 18:56:00,77.7,67.2,29.84,NNW,344,0.0,0.0,70,0.00,CLR,,0.28,WeatherDisplay:10.37,2013-07-21 23:56:00,
2013-07-21 19:01:00,77.7,67.2,29.84,NNW,344,0.0,0.0,70,0.00,CLR,,0.28,WeatherDisplay:10.37,2013-07-22 00:01:00,
2013-07-21 19:06:00,77.5,66.6,29.84,NNW,344,0.0,0.0,69,0.00,CLR,,0.28,WeatherDisplay:10.37,2013-07-22 00:06:00,
2013-07-21 19:11:00,77.5,66.6,29.84,NNW,344,0.0,0.0,69,0.00,CLR,,0.28,WeatherDisplay:10.37,2013-07-22 00:11:00,
2013-07-21 19:16:00,77.7,66.7,29.84,NNW,344,0.0,0.0,69,0.00,CLR,,0.28,WeatherDisplay:10.37,2013-07-22 00:16:00,
2013-07-21 19:21:00,77.7,66.7,29.84,NNW,344,0.0,0.0,69,0.00,CLR,,0.28,WeatherDisplay:10.37,2013-07-22 00:21:00,
2013-07-21 19:26:00,77.7,67.2,29.84,NNW,344,0.0,0.0,70,0.00,CLR,,0.28,WeatherDisplay:10.37,2013-07-22 00:26:00,
2013-07-21 19:31:00,77.7,67.2,29.84,NNW,344,0.0,0.0,70,0.00,CLR,,0.28,WeatherDisplay:10.37,2013-07-22 00:31:00,
2013-07-21 19:36:00,77.7,67.2,29.84,NNW,344,0.0,0.0,70,0.00,CLR,,0.28,WeatherDisplay:10.37,2013-07-22 00:36:00,
2013-07-21 19:41:00,77.7,67.2,29.84,NNW,344,0.0,0.0,70,0.00,CLR,,0.28,WeatherDisplay:10.37,2013-07-22 00:41:00,
2013-07-21 19:46:00,77.7,67.2,29.84,NNW,344,0.0,0.0,70,0.00,CLR,,0.28,WeatherDisplay:10.37,2013-07-22 00:46:00,
2013-07-21 19:51:00,77.7,67.2,29.84,NNW,344,0.0,0.0,70,0.00,CLR,,0.28,WeatherDisplay:10.37,2013-07-22 00:51:00,
2013-07-21 19:56:00,77.5,67.0,29.84,NNW,344,0.0,0.0,70,0.00,CLR,,0.28,WeatherDisplay:10.37,2013-07-22 00:56:00,
2013-07-21 20:01:00,77.5,67.0,29.84,NNW,344,0.0,0.0,70,0.00,CLR,,0.28,WeatherDisplay:10.37,2013-07-22 01:01:00,
2013-07-21 20:06:00,77.5,67.0,29.84,NNW,344,0.0,0.0,70,0.00,CLR,,0.28,WeatherDisplay:10.37,2013-07-22 01:06:00,
2013-07-21 20:11:00,77.5,67.0,29.84,NNW,344,0.0,0.0,70,0.00,CLR,,0.28,WeatherDisplay:10.37,2013-07-22 01:11:00,
2013-07-21 20:16:00,77.5,67.0,29.84,NNW,344,0.0,0.0,70,0.00,CLR,,0.28,WeatherDisplay:10.37,2013-07-22 01:16:00,
2013-07-21 20:21:00,77.4,66.8,29.84,NNW,344,0.0,0.0,70,0.00,CLR,,0.28,WeatherDisplay:10.37,2013-07-22 01:21:00,
2013-07-21 20:26:00,77.4,66.8,29.84,NNW,344,0.0,0.0,70,0.00,CLR,,0.28,WeatherDisplay:10.37,2013-07-22 01:26:00,
2013-07-21 20:31:00,77.2,67.0,29.84,NNW,344,0.0,0.0,71,0.00,CLR,,0.28,WeatherDisplay:10.37,2013-07-22 01:31:00,
2013-07-21 20:36:00,77.2,67.0,29.84,NNW,344,0.0,0.0,71,0.00,CLR,,0.28,WeatherDisplay:10.37,2013-07-22 01:36:00,
2013-07-21 20:41:00,77.0,66.9,29.84,NNW,344,0.0,0.0,71,0.00,CLR,,0.28,WeatherDisplay:10.37,2013-07-22 01:41:00,
2013-07-21 20:46:00,77.0,66.9,29.84,NNW,344,0.0,0.0,71,0.00,CLR,,0.28,WeatherDisplay:10.37,2013-07-22 01:46:00,
2013-07-21 20:51:00,77.0,66.9,29.84,NNW,344,0.0,0.0,71,0.00,CLR,,0.28,WeatherDisplay:10.37,2013-07-22 01:51:00,
2013-07-21 20:56:00,77.0,66.9,29.84,NNW,344,0.0,0.0,71,0.00,CLR,,0.28,WeatherDisplay:10.37,2013-07-22 01:56:00,
2013-07-21 21:01:00,77.0,67.3,29.84,NNW,344,0.0,0.0,72,0.00,CLR,,0.28,WeatherDisplay:10.37,2013-07-22 02:01:00,
2013-07-21 21:06:00,76.8,67.1,29.84,NNW,344,0.0,0.0,72,0.00,CLR,,0.28,WeatherDisplay:10.37,2013-07-22 02:06:00,
2013-07-21 21:11:00,76.8,67.1,29.84,NNW,344,0.0,0.0,72,0.00,CLR,,0.28,WeatherDisplay:10.37,2013-07-22 02:11:00,
2013-07-21 21:16:00,76.8,67.5,29.84,NNW,344,0.0,0.0,73,0.00,CLR,,0.28,WeatherDisplay:10.37,2013-07-22 02:16:00,
2013-07-21 21:21:00,76.8,67.5,29.84,NNW,344,0.0,0.0,73,0.00,CLR,,0.28,WeatherDisplay:10.37,2013-07-22 02:21:00,
2013-07-21 21:26:00,76.6,67.3,29.84,NNW,344,0.0,0.0,73,0.00,CLR,,0.28,WeatherDisplay:10.37,2013-07-22 02:26:00,
2013-07-21 21:31:00,76.5,67.2,29.84,NNW,344,0.0,0.0,73,0.00,CLR,,0.28,WeatherDisplay:10.37,2013-07-22 02:31:00,
2013-07-21 21:37:00,76.6,67.7,29.84,NNW,344,0.0,0.0,74,0.00,CLR,,0.28,WeatherDisplay:10.37,2013-07-22 02:37:00,
2013-07-21 21:42:00,76.6,68.1,29.84,NNW,344,0.0,0.0,75,0.00,CLR,,0.28,WeatherDisplay:10.37,2013-07-22 02:42:00,
2013-07-21 21:47:00,76.8,68.3,29.84,NNW,344,0.0,0.0,75,0.00,CLR,,0.28,WeatherDisplay:10.37,2013-07-22 02:47:00,
2013-07-21 21:52:00,76.8,68.3,29.84,NNW,344,0.0,0.0,75,0.00,CLR,,0.28,WeatherDisplay:10.37,2013-07-22 02:52:00,
2013-07-21 21:57:00,76.8,68.7,29.84,NNW,344,0.0,0.0,76,0.00,CLR,,0.28,WeatherDisplay:10.37,2013-07-22 02:57:00,
2013-07-21 22:02:00,76.6,68.5,29.84,NNW,344,0.0,0.0,76,0.00,CLR,,0.28,WeatherDisplay:10.37,2013-07-22 03:02:00,
2013-07-21 22:07:00,76.6,68.5,29.84,NNW,344,0.0,0.0,76,0.00,CLR,,0.28,WeatherDisplay:10.37,2013-07-22 03:07:00,
2013-07-21 22:12:00,76.6,68.9,29.84,NNW,344,0.0,0.0,77,0.00,CLR,,0.28,WeatherDisplay:10.37,2013-07-22 03:12:00,
2013-07-21 22:17:00,76.6,69.3,29.84,NNW,344,0.0,0.0,78,0.00,CLR,,0.28,WeatherDisplay:10.37,2013-07-22 03:17:00,
2013-07-21 22:22:00,76.6,69.3,29.84,NNW,344,0.0,0.0,78,0.00,CLR,,0.28,WeatherDisplay:10.37,2013-07-22 03:22:00,
2013-07-21 22:27:00,76.8,69.8,29.84,NNW,344,0.0,0.0,79,0.00,CLR,,0.28,WeatherDisplay:10.37,2013-07-22 03:27:00,
2013-07-21 22:32:00,76.8,69.8,29.84,NNW,344,0.0,0.0,79,0.00,CLR,,0.28,WeatherDisplay:10.37,2013-07-22 03:32:00,
2013-07-21 22:37:00,76.8,69.8,29.84,NNW,344,0.0,0.0,79,0.00,CLR,,0.28,WeatherDisplay:10.37,2013-07-22 03:37:00,
2013-07-21 22:42:00,76.8,70.2,29.84,NNW,344,0.0,0.0,80,0.00,CLR,,0.28,WeatherDisplay:10.37,2013-07-22 03:42:00,
2013-07-21 22:47:00,77.0,70.4,29.84,NNW,344,0.0,0.0,80,0.00,CLR,,0.28,WeatherDisplay:10.37,2013-07-22 03:47:00,
2013-07-21 22:52:00,76.8,70.2,29.84,NNW,344,0.0,0.0,80,0.00,CLR,,0.28,WeatherDisplay:10.37,2013-07-22 03:52:00,
2013-07-21 22:57:00,76.8,70.5,29.84,NNW,344,0.0,0.0,81,0.00,CLR,,0.28,WeatherDisplay:10.37,2013-07-22 03:57:00,
2013-07-21 23:01:00,76.8,70.5,29.84,NNW,344,0.0,0.0,81,0.00,CLR,,0.28,WeatherDisplay:10.37,2013-07-22 04:01:00,
2013-07-21 23:02:00,76.8,70.5,29.84,NNW,344,0.0,0.0,81,0.00,CLR,,0.28,WeatherDisplay:10.37,2013-07-22 04:02:00,
2013-07-21 23:04:00,76.8,70.9,29.84,NNW,344,0.0,0.0,82,0.00,CLR,,0.28,WeatherDisplay:10.37,2013-07-22 04:04:00,
2013-07-21 23:09:00,76.8,70.9,29.84,NNW,344,0.0,0.0,82,0.00,CLR,,0.28,WeatherDisplay:10.37,2013-07-22 04:09:00,
2013-07-21 23:14:00,76.8,71.3,29.84,NNW,344,0.0,0.0,83,0.00,CLR,,0.28,WeatherDisplay:10.37,2013-07-22 04:14:00,
2013-07-21 23:19:00,77.0,71.4,29.84,NNW,344,0.0,0.0,83,0.00,CLR,,0.28,WeatherDisplay:10.37,2013-07-22 04:19:00,
2013-07-21 23:24:00,76.8,71.3,29.84,NNW,344,0.0,0.0,83,0.00,CLR,,0.28,WeatherDisplay:10.37,2013-07-22 04:24:00,
2013-07-21 23:29:00,76.6,71.1,29.84,NNW,344,0.0,0.0,83,0.00,CLR,,0.28,WeatherDisplay:10.37,2013-07-22 04:29:00,
2013-07-21 23:34:00,76.6,71.4,29.84,NNW,344,0.0,0.0,84,0.00,CLR,,0.28,WeatherDisplay:10.37,2013-07-22 04:34:00,
2013-07-21 23:39:00,76.8,72.0,29.84,NNW,344,0.0,0.0,85,0.00,CLR,,0.28,WeatherDisplay:10.37,2013-07-22 04:39:00,
2013-07-21 23:44:00,76.8,72.3,29.84,NNW,344,0.0,0.0,86,0.00,CLR,,0.28,WeatherDisplay:10.37,2013-07-22 04:44:00,
2013-07-21 23:49:00,76.8,72.0,29.84,NNW,344,0.0,0.0,85,0.08,RA,,0.35,WeatherDisplay:10.37,2013-07-22 04:49:00,
2013-07-21 23:54:00,76.6,71.8,29.84,NNW,344,0.0,0.0,85,0.08,RA,,0.35,WeatherDisplay:10.37,2013-07-22 04:54:00,
2013-07-21 23:59:00,76.5,72.0,29.84,NNW,344,0.0,0.0,86,0.08,,,0.35,WeatherDisplay:10.37,2013-07-22 04:59:00,